Location: Ladrillo (historical)
(32.8195°N, 117.2231°W)
Time: 11:05:43
(UTC+00:00)

A-11 Canister half - All Passes

Search period start: 01 March 2021 00:00
Search period end: 11 March 2021 00:00
Orbit: 1516 x 1684 km, 47.2° (Epoch: 28 February)

Date Brightness Start Highest point End Pass type
(mag) Time Alt. Az. Time Alt. Az. Time Alt. Az.
01 Mar - 01:59:06 10° WNW 02:08:13 49° SW 02:17:03 10° SSE visible
01 Mar - 15:09:44 10° SSE 15:16:31 20° SE 15:23:18 10° E daylight
01 Mar - 17:10:21 10° SW 17:20:30 77° SE 17:30:34 10° NE daylight
01 Mar - 19:16:35 10° W 19:26:13 46° NNW 19:35:42 10° NE daylight
01 Mar - 21:24:34 10° WNW 21:33:31 35° N 21:42:12 10° ENE daylight
01 Mar - 23:30:42 10° NW 23:40:24 57° NNE 23:49:43 10° ESE daylight
02 Mar - 01:36:05 10° WNW 01:45:21 52° SW 01:54:19 10° SSE daylight
02 Mar - 14:47:21 10° SSE 14:53:40 19° ESE 14:59:58 10° E daylight
02 Mar - 16:47:27 10° SW 16:57:34 73° SE 17:07:36 10° NE daylight
02 Mar - 18:53:28 10° W 19:03:11 48° NNW 19:12:45 10° NE daylight
02 Mar - 21:01:28 10° WNW 21:10:26 35° N 21:19:09 10° ENE daylight
02 Mar - 23:07:44 10° NW 23:17:24 55° NNE 23:26:42 10° ESE daylight
03 Mar - 01:13:04 10° WNW 01:22:28 56° SW 01:31:33 10° SSE daylight
03 Mar - 03:24:11 10° WSW 03:25:52 11° WSW 03:27:33 10° SW visible
03 Mar - 14:25:04 10° SSE 14:30:49 17° ESE 14:36:33 10° E daylight
03 Mar - 16:24:35 10° SW 16:34:38 69° SE 16:44:38 10° ENE daylight
03 Mar - 18:30:22 10° W 18:40:09 50° NNW 18:49:48 10° NE daylight
03 Mar - 20:38:23 10° WNW 20:47:21 35° N 20:56:06 10° ENE daylight
03 Mar - 22:44:45 10° NW 22:54:25 52° NNE 23:03:41 10° E daylight
04 Mar - 00:50:04 10° WNW 00:59:36 60° SW 01:08:46 10° SSE daylight
04 Mar - 02:59:46 10° W 03:03:03 12° WSW 03:06:19 10° SW visible
04 Mar - 14:02:53 10° SSE 14:07:58 15° ESE 14:13:02 10° E daylight
04 Mar - 16:01:43 10° SW 16:11:42 65° SE 16:21:40 10° ENE daylight
04 Mar - 18:07:16 10° W 18:17:07 52° NNW 18:26:51 10° NE daylight
04 Mar - 20:15:16 10° WNW 20:24:16 35° N 20:33:03 10° ENE daylight
04 Mar - 22:21:47 10° NW 22:31:24 50° NNE 22:40:40 10° E daylight
05 Mar - 00:27:04 10° WNW 00:36:43 64° SW 00:45:59 10° SE daylight
05 Mar - 02:35:57 10° W 02:40:14 14° WSW 02:44:30 10° SSW visible
05 Mar - 13:40:53 10° SSE 13:45:07 13° ESE 13:49:22 10° E visible
05 Mar - 15:38:53 10° SSW 15:48:47 61° SE 15:58:41 10° ENE daylight
05 Mar - 17:44:11 10° WSW 17:54:05 54° NNW 18:03:54 10° NE daylight
05 Mar - 19:52:09 10° WNW 20:01:11 35° N 20:10:01 10° ENE daylight
05 Mar - 21:58:47 10° NW 22:08:23 49° NNE 22:17:38 10° E daylight
06 Mar - 00:04:05 10° WNW 00:13:49 69° SW 00:23:11 10° SE daylight
06 Mar - 02:12:21 10° W 02:17:25 16° WSW 02:22:26 10° SSW visible
06 Mar - 13:19:10 10° SE 13:22:16 12° ESE 13:25:23 10° ESE visible
06 Mar - 15:16:04 10° SSW 15:25:52 57° SE 15:35:41 10° ENE daylight
06 Mar - 17:21:07 10° WSW 17:31:04 56° NNW 17:40:57 10° NE daylight
06 Mar - 19:29:02 10° WNW 19:38:06 35° N 19:46:57 10° ENE daylight
06 Mar - 21:35:48 10° NW 21:45:22 47° NNE 21:54:36 10° E daylight
06 Mar - 23:41:06 10° NW 23:50:55 73° SW 00:00:21 10° SE daylight
07 Mar - 01:48:53 10° W 01:54:36 17° WSW 02:00:13 10° SSW daylight
07 Mar - 12:58:29 10° SE 12:59:25 10° ESE 13:00:23 10° ESE visible
07 Mar - 14:53:16 10° SSW 15:02:57 53° SE 15:12:41 10° ENE daylight
07 Mar - 16:58:03 10° WSW 17:08:03 59° NNW 17:18:00 10° NE daylight
07 Mar - 19:05:55 10° WNW 19:15:00 35° N 19:23:55 10° ENE daylight
07 Mar - 21:12:47 10° NW 21:22:20 45° NNE 21:31:33 10° E daylight
07 Mar - 23:18:06 10° NW 23:28:00 77° SW 23:37:30 10° SE daylight
08 Mar - 01:25:31 10° W 01:31:46 19° WSW 01:37:55 10° SSW daylight
08 Mar - 14:30:29 10° SSW 14:40:02 50° SE 14:49:40 10° ENE daylight
08 Mar - 16:35:01 10° WSW 16:45:02 61° NNW 16:55:04 10° NE daylight
08 Mar - 18:42:48 10° WNW 18:51:55 36° N 19:00:53 10° ENE daylight
08 Mar - 20:49:48 10° NW 20:59:18 44° NNE 21:08:29 10° E daylight
08 Mar - 22:55:08 10° NW 23:05:05 82° SW 23:14:38 10° SE daylight
09 Mar - 01:02:13 10° W 01:08:57 21° SW 01:15:33 10° S daylight
09 Mar - 14:07:43 10° SSW 14:17:08 46° SE 14:26:38 10° ENE daylight
09 Mar - 16:11:58 10° WSW 16:22:02 64° NNW 16:32:06 10° NE daylight
09 Mar - 18:19:40 10° WNW 18:28:50 36° N 18:37:51 10° ENE daylight
09 Mar - 20:26:47 10° NW 20:36:15 43° NNE 20:45:25 10° E daylight
09 Mar - 22:32:09 10° NW 22:42:10 86° SW 22:51:46 10° SE daylight
10 Mar - 00:38:58 10° WNW 00:46:06 24° SW 00:53:07 10° S daylight
10 Mar - 13:44:59 10° SSW 13:54:14 43° SE 14:03:35 10° ENE daylight
10 Mar - 15:48:56 10° WSW 15:59:02 67° NNW 16:09:09 10° NE daylight
10 Mar - 17:56:32 10° WNW 18:05:45 37° N 18:14:49 10° NE daylight
10 Mar - 20:03:46 10° NW 20:13:12 42° NNE 20:22:21 10° E daylight
10 Mar - 22:09:11 10° NW 22:19:13 90° NE 22:28:52 10° SE daylight
